QPF
0.00 0.00 0.00 0.00 0.00 0.00 0.00 0.01 0.01 0.01 0.00 0.00 0.00 0.00 0.01 0.02 0.04 0.13 0.03 0.00 0.00 0.00 0.00 0.00 0.00 0.00 0.00 0.00 0.01 0.01 0.01 0.00 0.00 0.00 0.00 0.01 0.00 0.00 0.00 0.00 0.00 0.00 0.00 0.00 0.00 0.00 0.00 0.00 0.00
0.00 0.00 0.00 0.00 0.00 0.00 0.01 0.01 0.01 0.00 0.00 0.00 0.00 0.00 0.00 0.01 0.02 0.01 0.00 0.00 0.00 0.00 0.00 0.00 0.00 0.00 0.00 0.01 0.01 0.02 0.02 0.01 0.01 0.01 0.01 0.01 0.01 0.00 0.00 0.00 0.00 0.00 0.00 0.00 0.00 0.00 0.00 0.00 0.00
0.00 0.00 0.00 0.00 0.00 0.00 0.01 0.02 0.01 0.00 0.00 0.00 0.00 0.00 0.00 0.00 0.00 0.00 0.00 0.00 0.00 0.00 0.00 0.00 0.00 0.00 0.00 0.01 0.01 0.02 0.03 0.03 0.02 0.02 0.01 0.01 0.01 0.01 0.01 0.00 0.00 0.00 0.00 0.00 0.00 0.00 0.00 0.00 0.00
0.00 0.00 0.00 0.00 0.00 0.00 0.01 0.01 0.01 0.01 0.01 0.00 0.00 0.00 0.00 0.00 0.00 0.00 0.00 0.00 0.00 0.00 0.00 0.00 0.00 0.00 0.00 0.01 0.01 0.02 0.04 0.04 0.04 0.03 0.02 0.02 0.01 0.01 0.01 0.00 0.00 0.00 0.00 0.00 0.00 0.00 0.00 0.00 0.00
0.00 0.00 0.00 0.00 0.00 0.00 0.00 0.00 0.01 0.01 0.01 0.00 0.00 0.00 0.01 0.00 0.00 0.00 0.00 0.00 0.00 0.00 0.00 0.00 0.00 0.00 0.00 0.01 0.02 0.04 0.04 0.04 0.04 0.04 0.03 0.03 0.02 0.01 0.01 0.00 0.00 0.00 0.00 0.00 0.00 0.00 0.00 0.00 0.00
0.00 0.00 0.00 0.00 0.00 0.00 0.00 0.00 0.00 0.00 0.01 0.00 0.00 0.01 0.03 0.01 0.00 0.00 0.00 0.00 0.00 0.00 0.00 0.00 0.00 0.00 0.01 0.02 0.03 0.05 0.05 0.05 0.05 0.04 0.03 0.02 0.02 0.01 0.01 0.00 0.00 0.00 0.00 0.00 0.00 0.00 0.00 0.00 0.00
0.00 0.00 0.00 0.00 0.00 0.00 0.00 0.00 0.00 0.00 0.00 0.00 0.00 0.01 0.05 0.03 0.01 0.00 0.00 0.00 0.00 0.00 0.00 0.00 0.00 0.00 0.01 0.03 0.04 0.05 0.05 0.05 0.05 0.04 0.02 0.02 0.01 0.01 0.01 0.00 0.00 0.00 0.00 0.00 0.00 0.00 0.00 0.00 0.00
0.00 0.00 0.00 0.00 0.00 0.00 0.00 0.00 0.00 0.00 0.00 0.00 0.00 0.02 0.09 0.07 0.02 0.00 0.00 0.00 0.00 0.00 0.00 0.00 0.00 0.00 0.00 0.00 0.02 0.04 0.05 0.05 0.05 0.03 0.02 0.01 0.01 0.01 0.01 0.01 0.00 0.00 0.00 0.00 0.00 0.00 0.00 0.00 0.00
0.00 0.00 0.00 0.00 0.00 0.00 0.00 0.00 0.00 0.00 0.00 0.00 0.00 0.02 0.11 0.07 0.01 0.00 0.00 0.00 0.00 0.00 0.00 0.00 0.00 0.00 0.00 0.00 0.00 0.01 0.02 0.03 0.02 0.01 0.01 0.01 0.01 0.02 0.02 0.01 0.00 0.00 0.00 0.00 0.00 0.00 0.00 0.00 0.00
0.00 0.00 0.00 0.00 0.00 0.00 0.00 0.00 0.00 0.00 0.00 0.00 0.00 0.01 0.04 0.02 0.01 0.00 0.00 0.00 0.00 0.00 0.00 0.00 0.00 0.00 0.00 0.01 0.02 0.02 0.02 0.02 0.01 0.04 0.01 0.02 0.07 0.07 0.05 0.03 0.01 0.00 0.00 0.00 0.00 0.01 0.01 0.01 0.01
0.00 0.00 0.00 0.00 0.00 0.00 0.00 0.00 0.00 0.00 0.00 0.00 0.00 0.01 0.03 0.03 0.01 0.00 0.00 0.00 0.00 0.00 0.00 0.00 0.00 0.00 0.01 0.03 0.04 0.06 0.08 0.07 0.08 0.11 0.05 0.06 0.08 0.06 0.04 0.04 0.03 0.01 0.01 0.03 0.05 0.03 0.03 0.02 0.02
0.00 0.00 0.00 0.00 0.00 0.00 0.00 0.00 0.00 0.00 0.00 0.00 0.00 0.01 0.03 0.03 0.01 0.00 0.00 0.01 0.00 0.00 0.00 0.00 0.00 0.01 0.01 0.03 0.06 0.05 0.06 0.06 0.07 0.09 0.06 0.08 0.07 0.05 0.04 0.05 0.04 0.05 0.05 0.06 0.06 0.04 0.04 0.02 0.02
0.00 0.00 0.00 0.00 0.00 0.00 0.00 0.00 0.00 0.00 0.00 0.00 0.01 0.05 0.09 0.06 0.01 0.00 0.01 0.02 0.01 0.00 0.00 0.00 0.01 0.02 0.04 0.07 0.07 0.04 0.04 0.04 0.06 0.08 0.08 0.08 0.06 0.04 0.03 0.03 0.04 0.04 0.05 0.07 0.05 0.04 0.04 0.03 0.02
0.00 0.00 0.00 0.00 0.00 0.00 0.00 0.00 0.00 0.00 0.00 0.00 0.01 0.06 0.06 0.05 0.03 0.04 0.01 0.01 0.00 0.00 0.00 0.00 0.01 0.01 0.03 0.04 0.05 0.05 0.04 0.05 0.07 0.07 0.06 0.05 0.05 0.04 0.04 0.04 0.04 0.04 0.05 0.06 0.08 0.06 0.06 0.04 0.03
0.00 0.00 0.00 0.00 0.00 0.00 0.00 0.00 0.00 0.00 0.00 0.00 0.01 0.03 0.06 0.07 0.04 0.04 0.03 0.01 0.00 0.00 0.00 0.00 0.01 0.02 0.03 0.04 0.04 0.04 0.04 0.04 0.04 0.06 0.06 0.03 0.03 0.04 0.04 0.05 0.07 0.06 0.06 0.06 0.08 0.07 0.07 0.05 0.04
0.00 0.00 0.00 0.00 0.00 0.00 0.00 0.00 0.00 0.00 0.00 0.01 0.03 0.02 0.05 0.11 0.03 0.03 0.04 0.03 0.01 0.01 0.02 0.01 0.01 0.03 0.03 0.04 0.05 0.04 0.04 0.04 0.04 0.03 0.04 0.03 0.03 0.04 0.06 0.06 0.07 0.08 0.08 0.09 0.11 0.10 0.10 0.10 0.09
0.00 0.00 0.00 0.00 0.00 0.00 0.00 0.01 0.00 0.00 0.01 0.03 0.03 0.04 0.06 0.10 0.07 0.10 0.09 0.04 0.01 0.02 0.03 0.03 0.03 0.05 0.05 0.05 0.04 0.03 0.04 0.05 0.06 0.05 0.05 0.06 0.07 0.08 0.08 0.08 0.10 0.11 0.12 0.11 0.11 0.12 0.13 0.16 0.15
0.00 0.00 0.00 0.00 0.00 0.00 0.00 0.01 0.01 0.00 0.01 0.07 0.10 0.13 0.08 0.08 0.09 0.09 0.11 0.05 0.02 0.03 0.04 0.04 0.05 0.08 0.10 0.09 0.08 0.07 0.07 0.07 0.07 0.08 0.09 0.09 0.09 0.09 0.09 0.09 0.10 0.11 0.12 0.12 0.13 0.12 0.12 0.14 0.13
0.00 0.00 0.00 0.00 0.00 0.00 0.00 0.01 0.01 0.01 0.02 0.04 0.09 0.15 0.08 0.06 0.07 0.07 0.13 0.12 0.05 0.06 0.07 0.09 0.09 0.10 0.10 0.11 0.11 0.12 0.14 0.14 0.12 0.11 0.11 0.12 0.13 0.12 0.12 0.13 0.13 0.12 0.14 0.17 0.16 0.13 0.14 0.13 0.10
0.00 0.00 0.00 0.00 0.00 0.00 0.01 0.02 0.04 0.02 0.04 0.09 0.12 0.14 0.10 0.06 0.08 0.12 0.10 0.08 0.08 0.10 0.09 0.09 0.10 0.11 0.11 0.13 0.16 0.19 0.18 0.17 0.17 0.17 0.17 0.15 0.15 0.16 0.16 0.16 0.15 0.13 0.13 0.14 0.14 0.13 0.13 0.13 0.13
0.00 0.00 0.00 0.00 0.00 0.00 0.02 0.05 0.05 0.05 0.04 0.10 0.15 0.14 0.08 0.06 0.11 0.16 0.11 0.06 0.08 0.10 0.11 0.10 0.10 0.11 0.13 0.16 0.20 0.23 0.24 0.23 0.24 0.21 0.19 0.18 0.15 0.12 0.10 0.09 0.10 0.10 0.10 0.11 0.12 0.14 0.16 0.16 0.14
0.00 0.00 0.00 0.00 0.00 0.00 0.01 0.08 0.10 0.06 0.05 0.09 0.13 0.08 0.05 0.05 0.09 0.14 0.09 0.07 0.07 0.07 0.09 0.11 0.10 0.10 0.12 0.15 0.21 0.23 0.20 0.23 0.25 0.26 0.21 0.16 0.12 0.10 0.08 0.07 0.06 0.06 0.07 0.09 0.10 0.12 0.13 0.13 0.13
0.00 0.00 0.00 0.00 0.00 0.01 0.00 0.06 0.13 0.07 0.06 0.07 0.08 0.07 0.04 0.03 0.05 0.07 0.07 0.06 0.06 0.06 0.07 0.08 0.10 0.12 0.12 0.15 0.20 0.23 0.26 0.31 0.31 0.26 0.19 0.16 0.13 0.11 0.10 0.08 0.06 0.06 0.07 0.08 0.08 0.07 0.07 0.07 0.07
0.00 0.00 0.00 0.00 0.00 0.01 0.01 0.05 0.13 0.13 0.10 0.07 0.05 0.04 0.04 0.02 0.02 0.02 0.02 0.03 0.04 0.06 0.06 0.06 0.06 0.09 0.11 0.15 0.21 0.25 0.28 0.29 0.27 0.25 0.21 0.18 0.15 0.11 0.09 0.07 0.06 0.06 0.06 0.05 0.05 0.05 0.05 0.04 0.04
0.00 0.00 0.00 0.00 0.00 0.01 0.02 0.06 0.17 0.19 0.16 0.12 0.06 0.03 0.02 0.02 0.02 0.02 0.02 0.02 0.03 0.04 0.05 0.06 0.07 0.09 0.10 0.12 0.15 0.16 0.18 0.19 0.18 0.19 0.17 0.14 0.12 0.10 0.09 0.07 0.06 0.06 0.06 0.05 0.05 0.04 0.03 0.03 0.03
0.00 0.00 0.00 0.01 0.01 0.01 0.02 0.09 0.15 0.15 0.13 0.08 0.06 0.04 0.02 0.02 0.03 0.02 0.02 0.02 0.02 0.03 0.04 0.05 0.07 0.08 0.08 0.08 0.09 0.11 0.11 0.12 0.12 0.12 0.10 0.10 0.09 0.09 0.08 0.07 0.05 0.04 0.03 0.03 0.02 0.01 0.01 0.01 0.02
0.00 0.00 0.00 0.00 0.01 0.03 0.07 0.10 0.09 0.07 0.09 0.07 0.04 0.03 0.02 0.03 0.03 0.02 0.02 0.02 0.02 0.02 0.04 0.04 0.05 0.06 0.05 0.04 0.04 0.07 0.09 0.10 0.09 0.08 0.06 0.06 0.06 0.05 0.04 0.03 0.02 0.01 0.01 0.01 0.01 0.01 0.01 0.01 0.01
0.00 0.00 0.00 0.00 0.01 0.05 0.10 0.10 0.08 0.04 0.03 0.03 0.03 0.02 0.02 0.02 0.02 0.03 0.03 0.02 0.02 0.03 0.03 0.03 0.04 0.03 0.03 0.03 0.03 0.05 0.06 0.07 0.06 0.05 0.04 0.03 0.03 0.02 0.02 0.01 0.01 0.01 0.01 0.01 0.01 0.01 0.01 0.01 0.01
0.00 0.00 0.00 0.00 0.00 0.03 0.10 0.14 0.11 0.10 0.04 0.02 0.02 0.02 0.01 0.02 0.01 0.01 0.01 0.01 0.02 0.03 0.03 0.03 0.03 0.03 0.03 0.03 0.03 0.03 0.03 0.03 0.02 0.02 0.02 0.02 0.01 0.01 0.01 0.00 0.00 0.01 0.01 0.01 0.01 0.01 0.01 0.01 0.00
0.00 0.00 0.00 0.00 0.01 0.02 0.10 0.22 0.20 0.16 0.09 0.04 0.02 0.02 0.01 0.01 0.01 0.01 0.01 0.01 0.01 0.02 0.02 0.03 0.02 0.02 0.03 0.03 0.03 0.03 0.03 0.02 0.02 0.01 0.01 0.01 0.00 0.00 0.00 0.00 0.00 0.00 0.00 0.00 0.00 0.00 0.00 0.00 0.00
MSLP
1008.24 1008.54 1009.09 1009.78 1010.46 1010.99 1011.26 1011.22 1010.87 1010.28 1009.57 1008.88 1008.31 1007.94 1007.80 1007.85 1008.04 1008.31 1008.58 1008.86 1009.13 1009.43 1009.79 1010.24 1010.78 1011.37 1011.98 1012.55 1013.03 1013.42 1013.72 1013.98 1014.24 1014.55 1014.92 1015.34 1015.79 1016.21 1016.55 1016.77 1016.88 1016.91 1016.89 1016.88 1016.92 1017.03 1017.19 1017.37 1017.53
1008.80 1009.20 1009.75 1010.33 1010.80 1011.05 1011.00 1010.63 1009.99 1009.17 1008.32 1007.58 1007.03 1006.74 1006.70 1006.88 1007.19 1007.57 1007.96 1008.33 1008.70 1009.10 1009.57 1010.12 1010.75 1011.43 1012.10 1012.71 1013.22 1013.62 1013.92 1014.17 1014.42 1014.72 1015.08 1015.50 1015.94 1016.35 1016.68 1016.90 1017.01 1017.03 1017.02 1017.02 1017.07 1017.19 1017.35 1017.53 1017.68
1009.45 1009.90 1010.40 1010.82 1011.04 1010.98 1010.60 1009.92 1009.03 1008.04 1007.12 1006.38 1005.90 1005.72 1005.81 1006.11 1006.52 1006.98 1007.42 1007.84 1008.26 1008.72 1009.26 1009.90 1010.63 1011.41 1012.18 1012.87 1013.44 1013.88 1014.20 1014.45 1014.69 1014.96 1015.29 1015.67 1016.07 1016.46 1016.77 1016.99 1017.11 1017.15 1017.17 1017.20 1017.28 1017.41 1017.58 1017.75 1017.87
1010.04 1010.50 1010.90 1011.13 1011.09 1010.73 1010.06 1009.14 1008.08 1007.01 1006.10 1005.44 1005.09 1005.06 1005.29 1005.70 1006.18 1006.68 1007.13 1007.55 1007.96 1008.43 1009.01 1009.70 1010.51 1011.39 1012.25 1013.03 1013.69 1014.18 1014.54 1014.80 1015.02 1015.26 1015.55 1015.88 1016.23 1016.58 1016.87 1017.09 1017.23 1017.32 1017.38 1017.46 1017.57 1017.72 1017.89 1018.03 1018.11
1010.47 1010.87 1011.14 1011.17 1010.89 1010.29 1009.41 1008.34 1007.21 1006.17 1005.35 1004.84 1004.67 1004.82 1005.19 1005.70 1006.24 1006.73 1007.15 1007.52 1007.90 1008.34 1008.90 1009.62 1010.47 1011.41 1012.35 1013.21 1013.94 1014.49 1014.89 1015.16 1015.38 1015.59 1015.83 1016.11 1016.42 1016.73 1017.01 1017.23 1017.40 1017.53 1017.64 1017.76 1017.91 1018.07 1018.23 1018.34 1018.37
1010.63 1010.94 1011.06 1010.91 1010.44 1009.68 1008.68 1007.57 1006.47 1005.55 1004.90 1004.59 1004.63 1004.95 1005.47 1006.06 1006.63 1007.10 1007.47 1007.78 1008.08 1008.46 1008.99 1009.68 1010.54 1011.50 1012.47 1013.37 1014.14 1014.73 1015.16 1015.45 1015.67 1015.87 1016.08 1016.33 1016.61 1016.89 1017.15 1017.38 1017.56 1017.72 1017.87 1018.03 1018.20 1018.37 1018.51 1018.58 1018.56
1010.53 1010.72 1010.70 1010.40 1009.81 1008.96 1007.95 1006.88 1005.90 1005.14 1004.70 1004.60 1004.83 1005.31 1005.94 1006.59 1007.17 1007.62 1007.95 1008.19 1008.43 1008.75 1009.22 1009.87 1010.70 1011.62 1012.58 1013.47 1014.23 1014.83 1015.27 1015.58 1015.81 1016.01 1016.22 1016.46 1016.72 1016.98 1017.24 1017.46 1017.65 1017.83 1017.99 1018.17 1018.34 1018.50 1018.62 1018.66 1018.60
1010.23 1010.30 1010.15 1009.75 1009.11 1008.26 1007.29 1006.33 1005.51 1004.93 1004.67 1004.74 1005.11 1005.70 1006.39 1007.07 1007.64 1008.08 1008.37 1008.59 1008.79 1009.08 1009.51 1010.11 1010.87 1011.74 1012.62 1013.45 1014.17 1014.75 1015.18 1015.49 1015.74 1015.96 1016.19 1016.43 1016.70 1016.96 1017.20 1017.41 1017.59 1017.76 1017.93 1018.09 1018.26 1018.40 1018.50 1018.51 1018.43
1009.84 1009.80 1009.57 1009.11 1008.46 1007.66 1006.79 1005.96 1005.28 1004.85 1004.71 1004.88 1005.31 1005.92 1006.61 1007.27 1007.83 1008.26 1008.56 1008.79 1009.02 1009.32 1009.74 1010.31 1011.01 1011.79 1012.57 1013.31 1013.95 1014.46 1014.87 1015.18 1015.45 1015.70 1015.96 1016.23 1016.51 1016.77 1017.00 1017.20 1017.36 1017.50 1017.64 1017.79 1017.93 1018.06 1018.14 1018.15 1018.06
1009.47 1009.34 1009.05 1008.59 1007.97 1007.24 1006.48 1005.77 1005.20 1004.86 1004.77 1004.94 1005.33 1005.87 1006.49 1007.09 1007.62 1008.05 1008.40 1008.69 1009.00 1009.36 1009.83 1010.39 1011.05 1011.74 1012.43 1013.05 1013.58 1014.02 1014.38 1014.69 1014.97 1015.26 1015.57 1015.88 1016.18 1016.45 1016.67 1016.84 1016.97 1017.07 1017.18 1017.29 1017.41 1017.53 1017.61 1017.63 1017.56
1009.17 1009.00 1008.69 1008.24 1007.68 1007.03 1006.37 1005.75 1005.24 1004.90 1004.77 1004.85 1005.12 1005.52 1006.00 1006.51 1006.99 1007.44 1007.85 1008.26 1008.69 1009.17 1009.72 1010.33 1010.97 1011.61 1012.20 1012.71 1013.14 1013.50 1013.81 1014.10 1014.41 1014.73 1015.08 1015.43 1015.76 1016.04 1016.25 1016.39 1016.49 1016.56 1016.63 1016.71 1016.82 1016.94 1017.04 1017.08 1017.06
1008.99 1008.79 1008.47 1008.05 1007.55 1006.98 1006.39 1005.81 1005.32 1004.94 1004.70 1004.63 1004.71 1004.93 1005.24 1005.63 1006.06 1006.53 1007.02 1007.56 1008.15 1008.78 1009.45 1010.14 1010.80 1011.40 1011.93 1012.36 1012.71 1012.99 1013.26 1013.54 1013.85 1014.21 1014.60 1014.99 1015.34 1015.63 1015.83 1015.96 1016.03 1016.06 1016.11 1016.18 1016.29 1016.42 1016.55 1016.64 1016.67
1008.90 1008.67 1008.36 1007.96 1007.50 1006.99 1006.44 1005.90 1005.38 1004.93 1004.58 1004.34 1004.23 1004.25 1004.40 1004.66 1005.04 1005.52 1006.10 1006.76 1007.50 1008.28 1009.09 1009.86 1010.57 1011.18 1011.67 1012.05 1012.34 1012.58 1012.81 1013.09 1013.41 1013.80 1014.22 1014.63 1015.01 1015.31 1015.51 1015.62 1015.67 1015.70 1015.74 1015.81 1015.93 1016.09 1016.26 1016.40 1016.49
1008.85 1008.59 1008.26 1007.87 1007.43 1006.95 1006.44 1005.91 1005.38 1004.88 1004.43 1004.07 1003.81 1003.68 1003.69 1003.86 1004.19 1004.67 1005.31 1006.06 1006.91 1007.82 1008.73 1009.58 1010.34 1010.96 1011.45 1011.81 1012.08 1012.31 1012.54 1012.81 1013.16 1013.56 1014.00 1014.44 1014.83 1015.14 1015.35 1015.46 1015.51 1015.54 1015.59 1015.68 1015.83 1016.02 1016.23 1016.42 1016.56
1008.78 1008.46 1008.09 1007.68 1007.25 1006.80 1006.32 1005.83 1005.32 1004.82 1004.35 1003.94 1003.61 1003.41 1003.35 1003.46 1003.75 1004.22 1004.87 1005.66 1006.56 1007.51 1008.47 1009.36 1010.15 1010.79 1011.29 1011.67 1011.95 1012.19 1012.43 1012.73 1013.09 1013.52 1013.97 1014.43 1014.83 1015.14 1015.36 1015.49 1015.56 1015.61 1015.68 1015.79 1015.97 1016.20 1016.44 1016.67 1016.85
1008.64 1008.25 1007.83 1007.39 1006.96 1006.53 1006.10 1005.67 1005.24 1004.81 1004.41 1004.04 1003.75 1003.57 1003.51 1003.61 1003.87 1004.32 1004.93 1005.68 1006.55 1007.46 1008.38 1009.25 1010.02 1010.67 1011.18 1011.58 1011.90 1012.18 1012.47 1012.81 1013.20 1013.65 1014.12 1014.58 1015.00 1015.33 1015.57 1015.72 1015.81 1015.89 1015.98 1016.12 1016.32 1016.56 1016.83 1017.08 1017.27
1008.44 1007.98 1007.49 1007.03 1006.60 1006.21 1005.86 1005.53 1005.23 1004.95 1004.69 1004.48 1004.32 1004.23 1004.24 1004.37 1004.63 1005.02 1005.55 1006.19 1006.92 1007.71 1008.51 1009.28 1009.99 1010.60 1011.11 1011.54 1011.91 1012.25 1012.61 1013.00 1013.44 1013.92 1014.41 1014.89 1015.32 1015.67 1015.93 1016.11 1016.23 1016.33 1016.44 1016.59 1016.79 1017.04 1017.30 1017.55 1017.74
1008.21 1007.68 1007.16 1006.69 1006.29 1005.96 1005.71 1005.53 1005.40 1005.31 1005.27 1005.27 1005.31 1005.39 1005.51 1005.70 1005.95 1006.28 1006.68 1007.15 1007.68 1008.26 1008.87 1009.47 1010.05 1010.59 1011.09 1011.54 1011.97 1012.38 1012.82 1013.28 1013.78 1014.30 1014.83 1015.33 1015.77 1016.14 1016.43 1016.63 1016.78 1016.90 1017.02 1017.17 1017.35 1017.57 1017.80 1018.01 1018.19
1007.96 1007.42 1006.91 1006.47 1006.14 1005.91 1005.79 1005.77 1005.84 1005.98 1006.17 1006.40 1006.66 1006.93 1007.20 1007.45 1007.70 1007.95 1008.20 1008.46 1008.75 1009.08 1009.44 1009.83 1010.26 1010.70 1011.15 1011.61 1012.09 1012.58 1013.10 1013.65 1014.21 1014.79 1015.35 1015.88 1016.35 1016.75 1017.06 1017.28 1017.45 1017.57 1017.69 1017.81 1017.95 1018.11 1018.29 1018.46 1018.60
1007.76 1007.25 1006.81 1006.47 1006.25 1006.15 1006.18 1006.33 1006.59 1006.93 1007.35 1007.79 1008.26 1008.70 1009.10 1009.43 1009.67 1009.84 1009.94 1010.00 1010.05 1010.11 1010.22 1010.39 1010.64 1010.96 1011.36 1011.82 1012.34 1012.91 1013.51 1014.13 1014.77 1015.40 1016.01 1016.57 1017.07 1017.48 1017.81 1018.05 1018.22 1018.34 1018.43 1018.51 1018.59 1018.69 1018.79 1018.90 1018.99
1007.59 1007.20 1006.90 1006.70 1006.64 1006.70 1006.89 1007.20 1007.62 1008.13 1008.70 1009.32 1009.93 1010.51 1011.00 1011.38 1011.63 1011.74 1011.73 1011.63 1011.47 1011.31 1011.20 1011.18 1011.26 1011.47 1011.81 1012.26 1012.80 1013.42 1014.09 1014.79 1015.48 1016.17 1016.81 1017.40 1017.91 1018.34 1018.68 1018.93 1019.09 1019.19 1019.24 1019.27 1019.29 1019.31 1019.33 1019.37 1019.40
1007.47 1007.25 1007.13 1007.13 1007.25 1007.49 1007.84 1008.28 1008.82 1009.43 1010.10 1010.80 1011.50 1012.14 1012.70 1013.12 1013.38 1013.47 1013.40 1013.20 1012.92 1012.63 1012.36 1012.20 1012.16 1012.29 1012.57 1013.00 1013.55 1014.20 1014.91 1015.65 1016.38 1017.09 1017.76 1018.36 1018.87 1019.31 1019.64 1019.88 1020.03 1020.10 1020.11 1020.08 1020.03 1019.98 1019.94 1019.91 1019.89
1007.37 1007.34 1007.43 1007.64 1007.97 1008.38 1008.86 1009.41 1010.02 1010.67 1011.37 1012.08 1012.79 1013.46 1014.04 1014.49 1014.79 1014.90 1014.84 1014.64 1014.33 1013.99 1013.67 1013.44 1013.35 1013.42 1013.66 1014.06 1014.60 1015.25 1015.96 1016.71 1017.45 1018.16 1018.81 1019.39 1019.90 1020.31 1020.62 1020.84 1020.96 1021.01 1020.98 1020.91 1020.81 1020.70 1020.60 1020.52 1020.47
1007.27 1007.42 1007.71 1008.12 1008.62 1009.19 1009.79 1010.41 1011.05 1011.71 1012.38 1013.06 1013.73 1014.38 1014.96 1015.44 1015.79 1015.98 1016.00 1015.88 1015.65 1015.37 1015.09 1014.87 1014.77 1014.82 1015.04 1015.41 1015.92 1016.53 1017.21 1017.92 1018.63 1019.29 1019.90 1020.44 1020.90 1021.27 1021.55 1021.73 1021.83 1021.85 1021.79 1021.69 1021.56 1021.42 1021.28 1021.17 1021.09
1007.17 1007.44 1007.88 1008.44 1009.09 1009.78 1010.47 1011.14 1011.79 1012.42 1013.04 1013.66 1014.28 1014.89 1015.47 1015.99 1016.42 1016.72 1016.88 1016.91 1016.84 1016.69 1016.53 1016.39 1016.34 1016.41 1016.61 1016.95 1017.41 1017.95 1018.56 1019.19 1019.82 1020.40 1020.94 1021.40 1021.79 1022.10 1022.33 1022.48 1022.55 1022.55 1022.48 1022.37 1022.22 1022.07 1021.92 1021.80 1021.71
1007.07 1007.41 1007.92 1008.56 1009.30 1010.06 1010.81 1011.52 1012.18 1012.78 1013.36 1013.93 1014.50 1015.08 1015.67 1016.23 1016.75 1017.18 1017.52 1017.75 1017.87 1017.91 1017.91 1017.90 1017.93 1018.04 1018.23 1018.53 1018.91 1019.37 1019.88 1020.40 1020.91 1021.39 1021.82 1022.19 1022.50 1022.74 1022.92 1023.03 1023.07 1023.06 1022.99 1022.89 1022.75 1022.61 1022.47 1022.35 1022.25
1007.02 1007.33 1007.83 1008.48 1009.23 1010.03 1010.82 1011.56 1012.23 1012.84 1013.41 1013.96 1014.51 1015.08 1015.68 1016.30 1016.91 1017.48 1017.99 1018.41 1018.74 1018.98 1019.15 1019.28 1019.40 1019.55 1019.74 1019.99 1020.30 1020.65 1021.04 1021.44 1021.82 1022.18 1022.50 1022.77 1022.99 1023.17 1023.29 1023.37 1023.40 1023.39 1023.34 1023.25 1023.13 1023.01 1022.89 1022.78 1022.68
1007.04 1007.25 1007.66 1008.25 1008.97 1009.76 1010.57 1011.35 1012.07 1012.72 1013.32 1013.89 1014.46 1015.05 1015.68 1016.35 1017.03 1017.71 1018.36 1018.95 1019.45 1019.86 1020.18 1020.43 1020.63 1020.82 1021.00 1021.20 1021.43 1021.69 1021.96 1022.23 1022.50 1022.74 1022.96 1023.14 1023.29 1023.41 1023.50 1023.56 1023.59 1023.58 1023.55 1023.49 1023.40 1023.30 1023.19 1023.08 1022.99
1007.17 1007.23 1007.50 1007.97 1008.62 1009.38 1010.20 1011.03 1011.82 1012.56 1013.24 1013.88 1014.51 1015.14 1015.81 1016.51 1017.24 1017.99 1018.71 1019.40 1020.01 1020.53 1020.95 1021.29 1021.55 1021.75 1021.92 1022.08 1022.24 1022.41 1022.59 1022.76 1022.93 1023.09 1023.23 1023.35 1023.46 1023.55 1023.62 1023.67 1023.71 1023.73 1023.72 1023.68 1023.61 1023.53 1023.42 1023.31 1023.21
1007.41 1007.29 1007.41 1007.75 1008.30 1009.03 1009.86 1010.75 1011.65 1012.50 1013.31 1014.05 1014.76 1015.46 1016.15 1016.87 1017.61 1018.36 1019.10 1019.81 1020.45 1021.02 1021.49 1021.86 1022.14 1022.35 1022.51 1022.64 1022.75 1022.86 1022.97 1023.08 1023.19 1023.29 1023.39 1023.49 1023.58 1023.67 1023.74 1023.81 1023.87 1023.91 1023.92 1023.90 1023.85 1023.76 1023.65 1023.52 1023.38
Thickness
5804 5813 5820 5814 5797 5791 5793 5806 5809 5814 5826 5843 5846 5838 5826 5814 5799 5785 5821 5837 5831 5820 5811 5804 5800 5796 5791 5787 5783 5779 5776 5773 5771 5769 5767 5765 5764 5762 5761 5759 5757 5756 5754 5753 5751 5750 5749 5748 5748
5802 5810 5809 5799 5780 5775 5790 5805 5802 5816 5836 5848 5846 5840 5831 5820 5823 5822 5829 5833 5827 5817 5809 5803 5797 5793 5789 5784 5780 5776 5773 5770 5768 5766 5764 5762 5761 5759 5757 5756 5754 5752 5751 5749 5748 5748 5747 5746 5745
5799 5804 5790 5784 5777 5778 5787 5798 5800 5823 5842 5844 5841 5843 5834 5822 5828 5828 5831 5832 5824 5814 5807 5798 5794 5790 5786 5781 5777 5773 5770 5767 5765 5763 5761 5759 5757 5756 5754 5753 5751 5749 5748 5746 5745 5745 5744 5743 5743
5794 5793 5787 5776 5776 5798 5805 5799 5802 5811 5832 5842 5841 5833 5835 5841 5838 5836 5834 5830 5819 5811 5803 5794 5790 5786 5782 5778 5774 5771 5767 5764 5762 5760 5758 5756 5754 5753 5751 5749 5748 5746 5745 5743 5742 5742 5741 5741 5740
5790 5778 5767 5767 5780 5803 5817 5813 5808 5802 5819 5834 5838 5824 5818 5835 5843 5838 5832 5825 5816 5809 5800 5791 5786 5782 5778 5775 5771 5767 5764 5762 5759 5757 5755 5753 5752 5750 5748 5746 5745 5743 5742 5741 5740 5739 5739 5739 5738
5774 5772 5756 5760 5780 5805 5820 5821 5816 5814 5824 5834 5835 5822 5814 5831 5831 5830 5829 5823 5817 5808 5797 5787 5782 5778 5775 5771 5768 5764 5761 5759 5756 5754 5752 5750 5749 5748 5746 5744 5743 5741 5740 5738 5738 5737 5737 5737 5736
5764 5762 5758 5767 5779 5798 5819 5832 5823 5819 5822 5831 5835 5816 5810 5820 5825 5829 5827 5822 5816 5808 5795 5785 5779 5774 5771 5767 5764 5762 5759 5756 5754 5752 5750 5748 5747 5745 5744 5742 5741 5739 5738 5737 5736 5735 5735 5735 5735
5771 5760 5757 5768 5777 5793 5823 5830 5830 5826 5825 5842 5839 5814 5797 5809 5821 5826 5823 5819 5813 5805 5795 5787 5780 5774 5768 5764 5761 5758 5756 5754 5752 5750 5748 5746 5745 5744 5742 5741 5739 5738 5737 5736 5735 5734 5734 5734 5734
5769 5748 5749 5766 5778 5795 5819 5818 5822 5831 5830 5832 5836 5825 5812 5815 5821 5818 5815 5811 5806 5801 5794 5789 5782 5775 5770 5765 5759 5756 5753 5751 5749 5747 5746 5745 5744 5744 5742 5741 5738 5737 5736 5735 5734 5733 5733 5734 5734
5756 5741 5755 5776 5790 5800 5812 5814 5816 5810 5812 5819 5822 5821 5816 5817 5816 5811 5808 5803 5800 5795 5793 5791 5783 5777 5773 5768 5759 5755 5753 5750 5749 5748 5746 5745 5746 5746 5744 5741 5739 5737 5736 5734 5734 5733 5733 5733 5734
5754 5747 5762 5778 5793 5800 5802 5808 5816 5804 5798 5812 5816 5815 5811 5812 5810 5810 5808 5805 5801 5797 5793 5791 5785 5779 5776 5770 5761 5758 5756 5751 5749 5749 5747 5746 5747 5746 5744 5741 5738 5737 5736 5735 5734 5733 5733 5735 5737
5750 5756 5765 5773 5786 5789 5792 5799 5803 5804 5808 5825 5827 5823 5814 5808 5808 5810 5808 5804 5802 5797 5793 5790 5786 5780 5776 5771 5765 5761 5758 5753 5752 5750 5748 5747 5747 5747 5746 5744 5741 5740 5739 5738 5737 5735 5736 5737 5738
5747 5753 5763 5771 5776 5780 5784 5787 5793 5801 5817 5823 5822 5815 5806 5805 5809 5812 5810 5804 5799 5795 5791 5788 5785 5779 5774 5770 5766 5763 5760 5756 5755 5751 5748 5748 5748 5746 5747 5745 5743 5742 5741 5739 5737 5736 5736 5735 5735
5747 5752 5757 5763 5768 5773 5772 5778 5785 5795 5812 5813 5811 5807 5804 5802 5807 5806 5803 5798 5797 5794 5790 5787 5783 5777 5771 5766 5764 5762 5759 5757 5755 5752 5749 5747 5747 5746 5744 5742 5740 5739 5738 5736 5735 5733 5732 5730 5729
5744 5738 5743 5755 5762 5767 5767 5762 5776 5796 5805 5803 5804 5805 5803 5802 5805 5801 5800 5797 5796 5793 5789 5784 5781 5775 5769 5764 5761 5760 5758 5756 5754 5750 5747 5745 5743 5742 5741 5738 5735 5733 5732 5731 5729 5728 5726 5725 5724
5733 5726 5723 5747 5759 5765 5755 5747 5778 5797 5795 5793 5796 5797 5795 5794 5798 5798 5795 5792 5792 5789 5784 5781 5778 5771 5765 5761 5758 5758 5756 5754 5751 5748 5745 5742 5740 5738 5735 5733 5730 5729 5727 5725 5723 5720 5718 5716 5715
5718 5715 5725 5746 5765 5764 5755 5751 5775 5793 5791 5785 5784 5785 5786 5783 5786 5787 5786 5787 5787 5784 5779 5775 5773 5766 5761 5757 5754 5753 5751 5749 5746 5743 5741 5738 5735 5733 5729 5727 5725 5723 5720 5718 5716 5714 5711 5708 5706
5715 5727 5736 5747 5765 5761 5752 5752 5769 5781 5783 5777 5774 5774 5775 5772 5772 5776 5777 5778 5779 5777 5773 5769 5766 5761 5757 5753 5749 5747 5745 5742 5739 5736 5734 5731 5728 5726 5724 5720 5717 5715 5713 5710 5707 5705 5703 5701 5699
5724 5727 5734 5753 5768 5756 5747 5746 5754 5764 5766 5764 5760 5759 5760 5760 5764 5765 5767 5765 5765 5765 5762 5759 5756 5754 5752 5747 5742 5739 5736 5733 5730 5727 5724 5721 5719 5717 5715 5712 5709 5707 5704 5701 5699 5697 5695 5692 5691
5718 5719 5728 5744 5755 5749 5741 5737 5742 5745 5744 5746 5747 5746 5746 5747 5748 5747 5750 5750 5750 5750 5750 5749 5749 5747 5745 5744 5740 5736 5731 5727 5722 5717 5713 5710 5708 5706 5705 5702 5700 5697 5695 5693 5691 5689 5685 5684 5682
5710 5714 5720 5727 5738 5742 5732 5721 5726 5731 5734 5735 5736 5733 5734 5733 5729 5729 5731 5734 5737 5738 5738 5740 5741 5740 5739 5738 5735 5731 5724 5718 5713 5707 5702 5699 5696 5693 5692 5692 5689 5687 5685 5682 5680 5679 5677 5673 5672
5702 5721 5722 5721 5718 5719 5725 5704 5716 5720 5718 5720 5721 5720 5718 5719 5717 5717 5717 5720 5723 5725 5728 5730 5731 5731 5732 5731 5728 5723 5716 5709 5702 5696 5690 5686 5684 5682 5680 5680 5677 5675 5673 5671 5670 5667 5666 5664 5661
5710 5725 5722 5717 5714 5713 5720 5707 5707 5715 5705 5704 5706 5706 5707 5707 5706 5704 5706 5708 5711 5714 5715 5717 5718 5718 5720 5719 5718 5713 5705 5698 5691 5686 5680 5676 5673 5671 5668 5666 5665 5663 5661 5659 5657 5655 5653 5651 5649
5718 5716 5717 5716 5712 5695 5709 5705 5698 5704 5702 5696 5695 5694 5695 5694 5694 5694 5696 5698 5699 5701 5702 5704 5705 5704 5705 5705 5704 5700 5692 5686 5680 5675 5668 5664 5661 5658 5656 5653 5652 5649 5648 5646 5644 5642 5639 5637 5635
5709 5697 5687 5686 5689 5697 5722 5709 5691 5703 5702 5695 5686 5682 5683 5683 5682 5683 5684 5686 5685 5687 5688 5689 5691 5689 5689 5689 5687 5684 5679 5674 5668 5662 5657 5653 5648 5644 5641 5640 5638 5637 5635 5633 5631 5629 5626 5624 5621
5702 5700 5684 5677 5681 5701 5717 5700 5684 5695 5693 5688 5682 5676 5673 5673 5672 5671 5672 5672 5673 5673 5674 5675 5676 5673 5673 5673 5670 5667 5664 5660 5654 5650 5645 5641 5636 5631 5629 5628 5626 5625 5623 5621 5618 5616 5613 5610 5607
5701 5703 5713 5697 5688 5683 5687 5680 5675 5684 5678 5675 5673 5668 5664 5662 5661 5660 5659 5659 5660 5660 5660 5661 5660 5659 5658 5657 5655 5652 5648 5645 5640 5636 5632 5627 5623 5621 5618 5616 5614 5612 5610 5608 5605 5602 5599 5596 5594
5715 5714 5706 5694 5674 5669 5674 5675 5672 5671 5669 5667 5664 5659 5654 5652 5650 5648 5647 5648 5647 5647 5646 5647 5646 5645 5643 5642 5640 5637 5633 5630 5626 5623 5619 5615 5611 5609 5607 5604 5602 5599 5596 5594 5593 5589 5586 5583 5580
5704 5706 5704 5702 5699 5678 5660 5663 5681 5673 5668 5662 5655 5650 5647 5643 5641 5639 5637 5636 5636 5635 5634 5633 5632 5631 5629 5627 5624 5622 5618 5615 5612 5609 5605 5602 5600 5597 5595 5592 5589 5586 5583 5581 5578 5576 5573 5569 5565
5712 5709 5704 5687 5688 5691 5675 5657 5679 5672 5662 5655 5647 5641 5637 5634 5632 5629 5627 5625 5624 5622 5621 5619 5618 5617 5614 5611 5609 5606 5603 5601 5598 5595 5592 5589 5587 5585 5582 5579 5576 5574 5570 5567 5564 5562 5559 5556 5551